Regional Weather Roundup
Issued by NWS

Home | Current Version | Previous Version | Graphics & Text | Print | Product List | Glossary On
Versions: 1 2 3 4 5 6 7 8 9 10 11 12 13 14 15 16 17 18 19 20 21 22 23 24 25 26 27 28 29 30 31 32 33 34 35 36 37 38 39 40 41 42 43 44 45 46 47 48 49 50
000
ASUS43 KLOT 281508
RWRIL

ILLINOIS REGIONAL WEATHER ROUNDUP
NATIONAL WEATHER SERVICE CHICAGO/ROMEOVILLE IL
1000 AM CDT TUE JUL 28 2015

NOTE: "FAIR" INDICATES FEW OR NO CLOUDS BELOW 12,000 FEET WITH NO
SIGNIFICANT WEATHER AND/OR OBSTRUCTIONS TO VISIBILITY.

* THESE STATIONS ARE NOT UNDER NWS QUALITY CONTROL. THEY ALSO MAY NOT
  REPORT WEATHER SUCH AS PRECIPITATION OR FOG.

ILZ001-002-007-009-015-016-024-281600-
NORTHWEST ILLINOIS

CITY           SKY/WX    TMP DP  RH WIND       PRES   REMARKS
MOLINE         PTSUNNY   79  73  82 SE5       29.95S HX  82
STERLING*      MOSUNNY   81  72  74 CALM      29.98R HX  84
SAVANNA*         N/A    N/A N/A N/A MISG        N/A
$$

ILZ003-004-008-010-011-017-018-281600-
NORTH CENTRAL ILLINOIS

CITY           SKY/WX    TMP DP  RH WIND       PRES   REMARKS
ROCKFORD       PTSUNNY   79  68  69 S5        30.02R HX  81
FREEPORT*      MOSUNNY   79  70  74 S6        30.02R HX  82
ROCHELLE*      MOSUNNY   80  71  75 S5        30.01R HX  83
DE KALB*       SUNNY     78  70  76 SE6       30.01R HX  80
PERU*          SUNNY     81  71  71 S5        29.99R HX  84
$$

ILZ005-006-012>014-019>023-281600-
NORTHEAST ILLINOIS

CITY           SKY/WX    TMP DP  RH WIND       PRES   REMARKS
CHICAGO-OHARE  MOSUNNY   83  67  58 SE12      29.98S HX  85
CHICAGO-MIDWAY MOSUNNY   86  66  51 SE10      29.97F HX  88
AURORA         SUNNY     82  70  66 SE8       29.99R HX  86
LANSING*       SUNNY     83  66  57 E7        29.98F HX  85
JOLIET*        SUNNY     83  73  71 SE3       29.98S HX  89
WAUKEGAN       SUNNY     78  67  68 SE8       29.99S HX  80
DUPAGE AIRPORT SUNNY     82  69  64 S9        29.99R HX  85
KANKAKEE*      SUNNY     82  74  77 SE5       29.99S HX  88
WHEELING       SUNNY     84  64  50 S8        29.99S HX  85
MORRIS*        SUNNY     80  72  76 SE5       29.97R HX  84
ROMEOVILLE*    SUNNY     82  68  62 S7        29.99R HX  85
NORTHERLY ISL    N/A     79  68  69 E3          N/A  HX  81
$$

LMZ740>746-281600-
SOUTHERN LAKE MICHIGAN

STATION/POSITION SKY/WX   TEMP    WIND        PRES    VSBY  WAVE
                          AIR SEA DIR/SP/G                  HT/PER
                          (F)     (DEG/KT/KT) (MB)    (MI)  (FT/S)
HARRISON CRIB              74     120/  6/  7   N/A
BURNHAM HARBOR             79     100/  5       N/A
CALUMET HARBOR             81     110/  3/  4   N/A
BURNS HARBOR               81     150/  7/ 13 1015.9F
MICHIGAN CITY              79     110/  6/  8   N/A
MICHIGAN CITY 6N           79 74  150/ 10/ 16   N/A           1
ST. JOSEPH                 76 74  180/  4/  4   N/A           1
$$

ILZ025>027-034>036-040-047-049-050-058-095>099-281600-
WEST-CENTRAL ILLINOIS

CITY           SKY/WX    TMP DP  RH WIND       PRES   REMARKS
QUINCY         SUNNY     82  76  81 S6        29.96R HX  89
GALESBURG*     MOSUNNY   80  75  83 S7        29.97R HX  85
MACOMB*        PTSUNNY   78  78  99 S5        29.98S HX  81
JACKSONVILLE*  MOSUNNY   83  76  79 S3        29.96S HX  92
PITTSFIELD*    MOSUNNY   82  75  80 SE5       29.97S HX  88
$$

ILZ028>032-037-038-041>044-048-051>054-059>061-281600-
CENTRAL ILLINOIS

CITY           SKY/WX    TMP DP  RH WIND       PRES   REMARKS
PONTIAC        SUNNY     81  77  86 SE3       29.99R HX  89
BLOOMINGTON    SUNNY     83  76  79 VRB6      29.99F HX  91
DECATUR        SUNNY     83  74  74 SE3       29.98S HX  89
PEORIA         SUNNY     85  74  69 S6        29.97R HX  92
LACON*         SUNNY     82  74  76 SE5       29.97R HX  87
LINCOLN*       MOSUNNY   86  76  72 S5        29.96S HX  95
SPRINGFIELD    MOSUNNY   85  77  77 S5        29.97S HX  95
TAYLORVILLE    SUNNY     81  77  89 CALM      29.97S HX  88
$$

ILZ033-039-045-046-055>057-062-063-281600-
EAST-CENTRAL ILLINOIS

CITY           SKY/WX    TMP DP  RH WIND       PRES   REMARKS
CHAMPAIGN      SUNNY     84  75  74 SE6       29.99R HX  92
DANVILLE*      MOSUNNY   80  76  86 CALM      29.96F FOG     HX  85
RANTOUL*       MOSUNNY   83  77  81 SE3       29.98F HX  92
MATTOON        SUNNY     82  73  74 VRB5      29.97F HX  87
PARIS*         MOSUNNY   83  75  77 CALM      29.99S HX  91
$$

ILZ079-100>102-281600-
SOUTHWEST ILLINOIS

CITY           SKY/WX    TMP DP  RH WIND       PRES   REMARKS
ALTON          MOSUNNY   82  75  78 VRB5      29.97S HX  89
BELLEVILLE     SUNNY     84  79  85 VRB6      29.96S HX  97
CAHOKIA*       SUNNY     86  76  71 S3        29.96F HX  96
SPARTA*        SUNNY     83  77  83 SW5       29.99S HX  92
$$

ILZ064>066-069>071-074>076-080>082-084>086-088>090-092>094-281600-
SOUTH-CENTRAL ILLINOIS

CITY           SKY/WX    TMP DP  RH WIND       PRES   REMARKS
CARBONDALE     SUNNY     85  77  77 SW6       29.98S HX  95
CAIRO*         SUNNY     85  79  82 SW5       29.98S HX  99
EFFINGHAM*     SUNNY     83  71  68 S3        29.99F HX  87
MARION         SUNNY     86  79  79 SW6       29.99R HX  99
MT. VERNON     SUNNY     84  73  70 SW6       29.98F HX  91
CENTRALIA*     SUNNY     83  72  67 CALM      29.98S HX  89
SALEM*         SUNNY     85  73  67 CALM      29.98S HX  92
METROPOLIS*    SUNNY     87  80  80 SW3       29.99S HX 103
$$

ILZ067-068-072-073-078-083-087-091-281600-
SOUTHEAST ILLINOIS

CITY           SKY/WX    TMP DP  RH WIND       PRES   REMARKS
LAWRENCEVILLE  PTSUNNY   83  77  82 SW3       29.98F HX  92
FLORA*         MOSUNNY   81  73  76 CALM      29.98S HX  86
FAIRFIELD*     MOSUNNY   82  76  82 S5        29.97S HX  89
HARRISBURG*    SUNNY     84  77  81 SW5       29.99S HX  94
ROBINSON*      PTSUNNY   81  76  85 SE3       29.99F HAZE    HX  88
CARMI*         SUNNY     83  71  66 CALM      29.97S HX  88
$$

ABBREVIATIONS USED IN REMARKS
   TC - TEMPERATURE IN CELSIUS
  WCI - WIND CHILL INDEX
   HX - HEAT INDEX
  VSB - VISIBILITY
$$




USA.gov is the U.S. government's official web portal to all federal, state and local government web resources and services.